Connaught Arpt, Ireland

5:27 AM GMT on February 24, 2017 (GMT +0000)
Connaught

Weather History for EIKN - December, 2012

Change the Weather History Date:

Monday, December 10, 2012

  Actual Average Record
Temperature  
Mean Temperature 36 °F -  
Max Temperature 36 °F - - ()
Min Temperature 33 °F - - ()
Degree Days  
Heating Degree Days 30    
Moisture  
Dew Point 32 °F    
Average Humidity 87    
Maximum Humidity 93    
Minimum Humidity 74    
Precipitation  
Precipitation 0.00 in - - ()
Sea Level Pressure  
Sea Level Pressure 30.32 in    
Wind  
Wind Speed 6 mph ()    
Max Wind Speed 10 mph    
Max Gust Speed -    
Visibility 7.1 miles    
Events      
T = Trace of Precipitation, MM = Missing Value Source: Averaged Metar Reports

Daily Weather History Graph

Daily Weather History Graph

Search for Another Location

Airport or City:

Trip Planner

Search our weather history database for the weather conditions in past years. The results will help you decide how hot, cold, wet, or windy it might be!

Date:

Astronomy

Dec. 10, 2012 Rise Set
Actual Time 8:42 AM GMT 4:13 PM GMT
Civil Twilight 7:59 AM GMT 4:56 PM GMT
Nautical Twilight 7:13 AM GMT 5:42 PM GMT
Astronomical Twilight 6:30 AM GMT 6:25 PM GMT
Moon 4:49 AM GMT (12/10) 2:10 PM GMT (12/10)
Length of Visible Light 8h 57m
Length of Day
7h 30m
Waning Crescent, 12% of the Moon is Illuminated
Dec 10
Waning Crescent
Dec 13
New
Dec 20
First Quarter
Dec 28
Full
Jan 5
Last Quarter

Hourly Weather History & Observations

Time (GMT) Temp. Windchill Dew Point Humidity Pressure Visibility Wind Dir Wind Speed Gust Speed Precip Events Conditions
12:00 AM 38 °F - 33 °F 74% 30.30 in - North 6.7 mph - -  
6:00 AM 35 °F - 32 °F 84% 30.32 in 19 mi NE 4.5 mph - -   Scattered Clouds
6:30 AM 35.6 °F 31.7 °F 32.0 °F 87% 30.27 in 6.2 mi North 4.6 mph - N/A   Partly Cloudy
7:00 AM 35.6 °F 30.7 °F 32.0 °F 87% 30.27 in - NNE 5.8 mph - N/A   Clear
7:30 AM 35.6 °F 31.7 °F 32.0 °F 87% 30.30 in - NNE 4.6 mph - N/A   Clear
8:00 AM 33.8 °F 29.6 °F 32.0 °F 93% 30.30 in - NNE 4.6 mph - N/A   Clear
8:30 AM 35.6 °F 31.7 °F 32.0 °F 87% 30.30 in - ENE 4.6 mph - N/A   Clear
9:00 AM 35.6 °F 29.9 °F 32.0 °F 87% 30.30 in 6.2 mi East 6.9 mph - N/A   Partly Cloudy
9:30 AM 35.6 °F 29.2 °F 32.0 °F 87% 30.30 in 6.2 mi East 8.1 mph - N/A   Mostly Cloudy
10:00 AM 35.6 °F 29.2 °F 32.0 °F 87% 30.33 in 6.2 mi East 8.1 mph - N/A   Mostly Cloudy
10:30 AM 35.6 °F 29.2 °F 32.0 °F 87% 30.33 in 6.2 mi East 8.1 mph - N/A   Mostly Cloudy
11:00 AM 35.6 °F 29.9 °F 32.0 °F 87% 30.33 in 6.2 mi East 6.9 mph - N/A   Mostly Cloudy
11:30 AM 35.6 °F 28.6 °F 32.0 °F 87% 30.33 in 6.2 mi East 9.2 mph - N/A   Mostly Cloudy
12:00 PM 36 °F - 32 °F 81% 30.38 in 22 mi East 8.9 mph - -   Scattered Clouds
12:00 PM 35.6 °F 29.2 °F 32.0 °F 87% 30.33 in 6.2 mi East 8.1 mph - N/A   Mostly Cloudy
12:30 PM 35.6 °F 28.0 °F 32.0 °F 87% 30.33 in 6.2 mi East 10.4 mph - N/A   Mostly Cloudy
1:00 PM 35.6 °F 28.6 °F 32.0 °F 87% 30.33 in 6.2 mi ESE 9.2 mph - N/A   Mostly Cloudy
1:30 PM 35.6 °F 29.2 °F 32.0 °F 87% 30.33 in 6.2 mi ESE 8.1 mph - N/A   Mostly Cloudy
2:00 PM 35.6 °F 29.9 °F 32.0 °F 87% 30.33 in 6.2 mi ESE 6.9 mph - N/A   Mostly Cloudy
2:30 PM 35.6 °F 29.9 °F 32.0 °F 87% 30.33 in 6.2 mi ESE 6.9 mph - N/A   Mostly Cloudy
3:00 PM 35.6 °F 29.9 °F 33.8 °F 93% 30.33 in 6.2 mi ESE 6.9 mph - N/A   Mostly Cloudy
3:30 PM 35.6 °F 29.9 °F 32.0 °F 87% 30.33 in - ESE 6.9 mph - N/A   Clear
4:00 PM 33.8 °F 27.7 °F 32.0 °F 93% 30.33 in - ESE 6.9 mph - N/A   Clear
4:30 PM 33.8 °F 27.7 °F 32.0 °F 93% 30.33 in - ESE 6.9 mph - N/A   Clear
5:00 PM 33.8 °F 27.0 °F 32.0 °F 93% 30.33 in - ESE 8.1 mph - N/A   Clear
6:00 PM 33 °F - 31 °F 90% 30.40 in 25 mi ESE 8.9 mph - -   Clear